Location: D�rnast
(49.6426°N, 11.9755°E)
Time: 02:51:22
(UTC+00:00)

Cosmos 1689 Rocket - Pass Details

Date: 24 January 2021
Orbit: 353 x 368 km, 97.5° (Epoch: 24 February)

Event Time Altitude Azimuth Distance (km) Brightness Sun altitude
Exits shadow 17:12:44 15° 122° (ESE) 1,082 3.9 -12.6°
Drops below altitude 10° 17:13:43 10° 140° (SE) 1,330 4.5 -12.7°
Sets 17:16:02 0° 161° (SSE) 2,165 5.8 -13.1°
